Home > Weather > Lakeland > Past weeks

Flag for USA Weather for the Past 2 Weeks in Lakeland, Florida, USA

Now
66 °F

Rain. Mostly cloudy.


Feels Like: 66 °F
Forecast: 67 / 75 °F
Wind: 5 mph from South

Location: Lakeland Regional

Current Time: May 4, 2016 at 2:02:15 PM

Latest Report: May 4, 2016 at 12:47 PM


Visibility: 3 mi

Pressure: 29.86 "Hg

Humidity: 100%

Dew Point: 66 °F

Location of LakelandLocation

Historic Weather in Lakeland — Graph

°F

Lakeland Temperature Yesterday

Maximum temperature yesterday: 90 °F (at 2:54 PM)
Minimum temperature yesterday: 72 °F (at 4:15 AM)
Average temperature yesterday: 78 °F

High & Low Weather Summary for the Past Weeks

 TemperatureHumidityPressure
High91 °F (Apr 29, 5:50 PM)100% (Apr 22, 8:50 PM)30.18 "Hg (Apr 22, 8:50 PM)
Low59 °F (Apr 20, 4:15 AM)33% (Apr 26, 4:52 PM)29.80 "Hg (May 4, 5:50 AM)
Average74 °F74%30.00 "Hg
* Reported Apr 19 12:45 PM — May 4 12:47 PM, Lakeland, Weather by CustomWeather, © 2016

Note: Actual official high and low records may vary slightly from our data, if they occured in-between our weather recording intervals... More about our weather records

Advertising

Lakeland Weather History for the Previous 24 Hours

Scroll right to see more
 ConditionsComfort  
Time TempWeatherWind HumidityBarometerVisibility
12:47 PM
Wed, May 4
66 °FRain. Mostly cloudy.5 mph100%29.86 "Hg3 mi
11:55 AM68 °FLow clouds.8 mph94%29.85 "Hg7 mi
11:20 AM68 °FMostly cloudy.8 mph100%29.86 "Hg7 mi
10:51 AM68 °FFog.8 mph100%29.89 "Hg3 mi
9:51 AM68 °FLight rain. Cloudy.13 mph94%29.90 "Hg7 mi
9:05 AM66 °FCloudy.7 mph100%29.90 "Hg10 mi
8:45 AM66 °FMostly cloudy.No wind94%29.88 "Hg7 mi
7:49 AM66 °FThunderstorms. Cloudy.10 mph100%29.83 "Hg3 mi
6:48 AM73 °FThunderstorms. Passing clouds.No wind100%29.82 "Hg5 mi
5:50 AM73 °FPassing clouds.6 mph94%29.80 "Hg10 mi
5:15 AM72 °FFog.No wind100%29.81 "Hg5 mi
4:55 AM72 °FPassing clouds.6 mph100%29.81 "Hg7 mi
3:55 AM72 °FFog.3 mph94%29.85 "Hg4 mi
3:35 AM72 °FFog.3 mph94%29.84 "Hg4 mi
3:15 AM72 °FFog.3 mph94%29.85 "Hg4 mi
2:15 AM72 °FFog.3 mph94%29.87 "Hg5 mi
1:55 AM72 °FClear.5 mph94%29.89 "Hg7 mi
1:15 AM72 °FClear.6 mph94%29.90 "Hg7 mi
12:35 AM72 °FClear.5 mph100%29.90 "Hg7 mi
12:15 AM72 °FClear.3 mph94%29.91 "Hg7 mi
11:55 PM
Tue, May 3
72 °FClear.6 mph94%29.92 "Hg7 mi
11:15 PM73 °FPassing clouds.5 mph94%29.90 "Hg10 mi
10:55 PM75 °FPassing clouds.No wind89%29.91 "Hg10 mi
10:35 PM75 °FClear.No wind89%29.91 "Hg10 mi
10:15 PM75 °FClear.No wind89%29.91 "Hg10 mi
9:50 PM77 °FPassing clouds.5 mph83%29.90 "Hg10 mi
8:50 PM79 °FMore clouds than sun.5 mph84%29.89 "Hg10 mi
7:50 PM82 °FBroken clouds.8 mph70%29.90 "Hg10 mi
6:45 PM84 °FBroken clouds.12 mph62%29.88 "Hg10 mi
5:52 PM86 °FPartly sunny.12 mph59%29.88 "Hg10 mi
4:54 PM86 °FBroken clouds.12 mph55%29.89 "Hg10 mi
3:54 PM88 °FScattered clouds.14 mph46%29.90 "Hg10 mi
2:54 PM90 °FScattered clouds.14 mph46%29.91 "Hg10 mi
Weather by CustomWeather, © 2016

See weather overviewHow to use our weather pages